Waarnemingen

Advertentie
Mijn weer
Rostherne No 2, Groot Brittannië (3351): temperatuur & dauwpunt: 01.12.2019 00:00:00 - 07.12.2019 00:00:00 (GMT)Rostherne No 2, Groot Brittannië (3351): windsnelheid & windstoten: 01.12.2019 00:00:00 - 07.12.2019 00:00:00 (GMT)Rostherne No 2, Groot Brittannië (3351): windrichting: 01.12.2019 00:00:00 - 07.12.2019 00:00:00 (GMT)Rostherne No 2, Groot Brittannië (3351): luchtdruk: 01.12.2019 00:00:00 - 07.12.2019 00:00:00 (GMT)Rostherne No 2, Groot Brittannië (3351): zicht: 01.12.2019 00:00:00 - 07.12.2019 00:00:00 (GMT)Rostherne No 2, Groot Brittannië (3351): Zonneschijnduur: 01.12.2019 00:00:00 - 07.12.2019 00:00:00 (GMT)Rostherne No 2, Groot Brittannië (3351): neerslag: 01.12.2019 00:00:00 - 07.12.2019 00:00:00 (GMT)
Datum & Tijd tt [°C] td [°C] ff [km/u] ff [kn] fx [km/u] fx [kn] dd ppp [hPa] vv [km] sd [min] rr [mm]
07.12.2019 00:00:00 - - - - - - - - - - -
06.12.2019 23:00:00 8,7 7,3 18 10 - - W 1006,2 19 0 0,0
06.12.2019 22:00:00 9,1 7,3 21 11 - - W 1005,6 21 0 0,0
06.12.2019 21:00:00 9,2 7,3 22 12 - - W 1005,0 22 0 0,0
06.12.2019 20:00:00 9,2 7,6 22 12 - - WNW 1004,3 20 0 0,0
06.12.2019 19:00:00 9,1 7,5 31 17 46 25 WNW 1003,0 23 0 0,0
06.12.2019 18:00:00 9,1 7,7 26 14 46 25 WNW 1001,9 19 0 0,0
06.12.2019 17:00:00 8,8 7,7 22 12 - - WNW 1000,5 20 0 0,0
06.12.2019 16:00:00 8,7 8,1 26 14 - - W 999,0 6 0 0,4
06.12.2019 15:00:00 8,2 7,1 21 11 - - W 998,2 19 0 0,8
06.12.2019 14:00:00 10,1 8,4 22 12 - - W 997,6 22 0 1,8
06.12.2019 13:00:00 10,5 8,9 21 11 - - W 997,6 1,7 30 3,0
06.12.2019 12:00:00 12,5 9,6 16 9 - - W 997,7 50 6 0,0
06.12.2019 11:00:00 12,2 9,5 13 7 - - WZW 998,6 50 0 0,0
06.12.2019 10:00:00 11,9 9,8 16 9 - - ZW 999,0 50 0 0,0
06.12.2019 09:00:00 11,4 10,2 13 7 - - ZZW 999,3 50 0 0,0
06.12.2019 08:00:00 11,3 10,3 15 8 - - ZW 999,5 50 0 0,0
06.12.2019 07:00:00 11,2 10,2 15 8 - - ZZW 999,9 50 0 0,0
06.12.2019 06:00:00 11,1 10,4 15 8 - - ZZW 1000,4 8 0 0,0
06.12.2019 05:00:00 11,2 10,2 16 9 - - ZZW 1001,3 35 0 0,4
06.12.2019 04:00:00 11,4 9,7 11 6 - - ZZW 1001,9 50 0 0,0
06.12.2019 03:00:00 11,6 9,8 13 7 - - ZZW 1002,7 50 0 0,0
06.12.2019 02:00:00 12,0 9,8 18 10 - - WZW 1002,7 45 0 0,0
06.12.2019 01:00:00 11,9 9,7 21 11 - - WZW 1003,3 35 0 0,0
06.12.2019 00:00:00 12,4 9,6 24 13 48 26 WZW 1004,4 50 - 0,0
05.12.2019 23:00:00 12,4 9,4 29 16 46 25 WZW 1004,8 50 0 0,0
05.12.2019 22:00:00 12,5 9,3 28 15 52 28 WZW 1005,2 30 0 0,0
05.12.2019 21:00:00 12,4 9,1 21 11 - - WZW 1005,3 30 0 0,0
05.12.2019 20:00:00 11,1 8,1 16 9 - - ZW 1005,6 50 0 0,0
05.12.2019 19:00:00 10,4 7,9 15 8 - - ZZW 1006,1 50 0 0,0
05.12.2019 18:00:00 10,0 7,6 18 10 - - ZZW 1007,1 50 0 0,0
05.12.2019 17:00:00 9,6 6,9 18 10 - - ZZW 1007,5 50 0 0,0
05.12.2019 16:00:00 9,7 6,5 21 11 - - ZZW 1008,4 50 0 0,0
05.12.2019 15:00:00 9,2 6,4 22 12 - - ZZW 1009,4 25 0 0,2
05.12.2019 14:00:00 8,5 6,4 16 9 - - ZZW 1010,8 23 0 0,0
05.12.2019 13:00:00 8,8 6,0 13 7 - - ZZW 1012,2 40 0 0,0
05.12.2019 12:00:00 7,5 5,2 15 8 - - Z 1013,7 23 0 0,0
05.12.2019 11:00:00 7,0 4,9 13 7 - - Z 1015,4 25 0 0,0
05.12.2019 10:00:00 5,9 4,6 11 6 - - ZZW 1016,0 27 0 0,0
05.12.2019 09:00:00 4,7 3,6 13 7 - - Z 1016,4 19 0 0,0
05.12.2019 08:00:00 4,7 3,5 11 6 - - ZZW 1016,6 20 0 0,0
05.12.2019 07:00:00 4,6 3,5 9 5 - - ZZW 1017,1 24 0 0,0
05.12.2019 06:00:00 4,0 3,0 9 5 - - ZZW 1017,4 27 0 0,0
05.12.2019 05:00:00 5,1 3,6 13 7 - - ZW 1017,3 26 0 0,0
05.12.2019 04:00:00 4,8 4,2 13 7 - - ZW 1017,6 18 0 0,0
05.12.2019 03:00:00 4,7 4,3 9 5 - - ZZW 1018,3 11 0 0,0
05.12.2019 02:00:00 5,0 4,5 9 5 - - ZZW 1018,2 11 0 0,0
05.12.2019 01:00:00 5,1 4,3 5 3 - - ZZW 1018,5 12 0 0,0
05.12.2019 00:00:00 5,6 4,7 9 5 48 26 ZZW 1018,8 17 - 0,0
04.12.2019 23:00:00 4,9 4,0 5 3 - - ZZW 1018,7 12 0 0,0
04.12.2019 22:00:00 5,0 4,3 9 5 - - ZZW 1018,5 11 0 0,0
04.12.2019 21:00:00 5,4 3,6 11 6 - - ZZW 1018,4 15 0 0,0
04.12.2019 20:00:00 5,9 3,7 11 6 - - ZZW 1018,3 19 0 0,0
04.12.2019 19:00:00 6,0 3,7 11 6 - - Z 1018,0 17 0 0,0
04.12.2019 18:00:00 5,7 3,6 11 6 - - Z 1018,2 15 0 0,0
04.12.2019 17:00:00 6,1 3,7 11 6 - - Z 1017,9 17 0 0,0
04.12.2019 16:00:00 6,7 3,8 11 6 - - Z 1017,7 22 24 0,0
04.12.2019 15:00:00 6,9 3,7 13 7 - - Z 1017,7 21 48 0,0
04.12.2019 14:00:00 7,1 3,5 15 8 - - Z 1017,5 21 60 0,0
04.12.2019 13:00:00 6,9 3,2 13 7 - - Z 1017,8 23 60 0,0
04.12.2019 12:00:00 6,7 3,1 13 7 - - Z 1018,2 16 60 0,0
04.12.2019 11:00:00 5,7 2,6 11 6 - - Z 1019,0 26 60 0,0
04.12.2019 10:00:00 4,4 2,0 11 6 - - Z 1019,2 11 24 0,0
04.12.2019 09:00:00 4,0 1,9 11 6 - - Z 1019,1 19 0 0,0
04.12.2019 08:00:00 3,3 1,7 11 6 - - Z 1018,6 19 0 0,0
04.12.2019 07:00:00 1,8 0,6 9 5 - - ZZO 1018,6 10 0 0,0
04.12.2019 06:00:00 3,3 2,0 11 6 - - Z 1018,8 16 0 0,0
04.12.2019 05:00:00 3,0 1,8 8 4 - - Z 1019,1 14 0 0,0
04.12.2019 04:00:00 3,5 2,1 9 5 - - Z 1019,2 16 0 0,0
04.12.2019 03:00:00 3,2 2,3 9 5 - - Z 1019,6 17 0 0,0
04.12.2019 02:00:00 3,9 2,4 9 5 - - Z 1020,2 20 0 0,0
04.12.2019 01:00:00 4,5 2,8 5 3 - - Z 1020,6 29 0 0,0
04.12.2019 00:00:00 3,8 2,8 8 4 - - ZZO 1021,1 18 - 0,0
03.12.2019 23:00:00 3,7 2,2 8 4 - - ZZO 1021,4 19 0 0,0
03.12.2019 22:00:00 4,2 3,8 9 5 - - Z 1021,7 22 0 0,0
03.12.2019 21:00:00 0,7 0,4 5 3 - - ZO 1021,9 1,2 0 0,0
03.12.2019 20:00:00 2,6 2,5 8 4 - - ZO 1022,3 12 0 0,0
03.12.2019 19:00:00 2,1 1,9 8 4 - - ZZO 1022,7 7 0 0,0
03.12.2019 18:00:00 1,6 1,1 5 3 - - ZZO 1023,3 6 0 0,0
03.12.2019 17:00:00 2,9 2,1 5 3 - - ZO 1023,3 10 0 0,0
03.12.2019 16:00:00 4,7 2,3 4 2 - - Z 1023,7 15 24 0,0
03.12.2019 15:00:00 7,8 4,1 4 2 - - Z 1023,4 30 60 0,0
03.12.2019 14:00:00 8,9 4,3 5 3 - - WZW 1023,8 35 60 0,0
03.12.2019 13:00:00 8,5 4,3 4 2 - - Z 1024,6 30 60 0,0
03.12.2019 12:00:00 6,7 3,7 8 4 - - Z 1025,8 25 60 0,0
03.12.2019 11:00:00 6,4 3,8 5 3 - - Z 1026,8 21 60 0,0
03.12.2019 10:00:00 4,0 3,4 5 3 - - ZZO 1027,3 13 30 0,2
03.12.2019 09:00:00 2,6 2,6 5 3 - - Z 1027,4 14 0 0,0
03.12.2019 08:00:00 -0,7 -1,0 5 3 - - ZO 1027,4 6 0 0,0
03.12.2019 07:00:00 -0,1 -0,4 4 2 - - ZZO 1027,5 6 0 0,0
03.12.2019 06:00:00 0,8 0,3 5 3 - - OZO 1027,7 13 0 0,0
03.12.2019 05:00:00 1,6 0,7 5 3 - - ZZO 1028,0 16 0 0,0
03.12.2019 04:00:00 3,6 2,6 8 4 - - ZZW 1028,3 23 0 0,0
03.12.2019 03:00:00 4,7 3,4 8 4 - - Z 1029,0 28 0 0,0
03.12.2019 02:00:00 4,8 3,4 8 4 - - ZZW 1029,4 20 0 0,0
03.12.2019 01:00:00 5,3 3,5 8 4 - - ZW 1029,5 30 0 0,0
03.12.2019 00:00:00 5,3 3,4 9 5 - - ZW 1030,0 35 - 0,0
02.12.2019 23:00:00 5,3 3,7 9 5 - - ZW 1030,3 30 0 0,0
02.12.2019 22:00:00 5,6 3,9 5 3 - - ZZW 1030,4 22 0 0,0
02.12.2019 21:00:00 5,6 4,0 11 6 - - W 1030,7 26 0 0,0
02.12.2019 20:00:00 5,7 4,3 9 5 - - ZW 1030,8 26 0 0,0
02.12.2019 19:00:00 4,2 3,9 4 2 - - ZZW 1030,8 15 0 0,0
02.12.2019 18:00:00 4,2 3,9 5 3 - - ZZW 1030,8 18 0 0,0
02.12.2019 17:00:00 3,0 2,5 4 2 - - ZZO 1030,9 10 0 0,0
02.12.2019 16:00:00 3,2 2,7 8 4 - - ZO 1031,1 11 0 0,0
02.12.2019 15:00:00 3,7 2,9 4 2 - - ZZO 1030,9 12 0 0,0
02.12.2019 14:00:00 4,4 2,9 2 1 - - ZZO 1031,3 13 12 0,0
02.12.2019 13:00:00 3,3 2,9 2 1 - - Z 1031,7 12 0 0,0
02.12.2019 12:00:00 1,7 1,5 2 1 - - Z 1031,9 10 0 0,0
02.12.2019 11:00:00 0,5 0,4 2 1 - - Z 1032,0 7 6 0,0
02.12.2019 10:00:00 -0,7 -0,9 2 1 - - OZO 1032,0 8 0 0,0
02.12.2019 09:00:00 -2,0 -2,2 4 2 - - OZO 1031,8 7 0 0,0
02.12.2019 08:00:00 -3,2 -3,5 2 1 - - OZO 1031,8 7 0 0,0
02.12.2019 07:00:00 -3,0 -3,3 2 1 - - O 1031,5 7 0 0,0
02.12.2019 06:00:00 -3,3 -3,6 4 2 - - ZO 1031,5 7 0 0,0
02.12.2019 05:00:00 -4,6 -5,0 4 2 - - ZZO 1031,6 7 0 0,0
02.12.2019 04:00:00 -5,0 -5,4 5 3 - - ZO 1031,5 8 0 0,0
02.12.2019 03:00:00 -5,0 -5,4 5 3 - - ZO 1031,6 7 0 0,0
02.12.2019 02:00:00 -4,7 -5,1 2 1 - - ZZW 1031,6 8 0 0,0
02.12.2019 01:00:00 -4,4 -4,8 5 3 - - ZZO 1031,2 8 0 0,0
02.12.2019 00:00:00 -4,0 -4,4 2 1 - - ZO 1031,4 5 - 0,0
01.12.2019 23:00:00 -3,3 -3,6 5 3 - - NNW 1030,9 6 0 0,0
01.12.2019 22:00:00 -2,9 -3,3 5 3 - - NW 1030,4 6 0 0,0
01.12.2019 21:00:00 -2,6 -3,0 2 1 - - W 1030,2 2,9 0 0,0
01.12.2019 20:00:00 -2,1 -2,5 2 1 - - N 1029,8 7 0 0,0
01.12.2019 19:00:00 -1,5 -2,1 2 1 - - O 1029,3 12 0 0,0
01.12.2019 18:00:00 -0,5 -1,2 5 3 - - NW 1029,0 21 0 0,0
01.12.2019 17:00:00 -0,2 -1,5 8 4 - - NW 1028,5 15 0 0,0
01.12.2019 16:00:00 1,6 -0,7 9 5 - - NW 1028,6 30 12 0,0
01.12.2019 15:00:00 3,9 0,3 8 4 - - NW 1027,9 24 60 0,0
01.12.2019 14:00:00 4,9 1,8 8 4 - - NW 1027,4 20 60 0,0
01.12.2019 13:00:00 4,5 2,5 5 3 - - NW 1027,3 14 60 0,0
01.12.2019 12:00:00 2,8 2,6 5 3 - - NW 1027,1 18 36 0,0
01.12.2019 11:00:00 0,6 0,5 2 1 - - NNW 1027,7 15 0 0,0
01.12.2019 10:00:00 0,3 0,3 4 2 - - NW 1027,2 9 24 0,0
01.12.2019 09:00:00 -2,1 -2,2 0 0 - - N 1026,7 4,1 0 0,0
01.12.2019 08:00:00 -3,0 -3,1 8 4 - - NW 1026,0 4,7 0 0,0
01.12.2019 07:00:00 -3,0 -3,2 8 4 - - NW 1025,5 5 0 0,0
01.12.2019 06:00:00 -2,6 -2,8 8 4 - - NW 1024,7 5 0 0,0
01.12.2019 05:00:00 -1,3 -1,4 2 1 - - N 1024,4 2,6 0 0,0
01.12.2019 04:00:00 -1,6 -1,7 4 2 - - NW 1024,6 2,5 0 0,0
01.12.2019 03:00:00 -1,2 -1,3 8 4 - - NNW 1024,6 2,4 0 0,0
01.12.2019 02:00:00 -1,1 -1,2 0 0 - - N 1024,3 2,4 0 0,0
01.12.2019 01:00:00 -0,2 -0,3 4 2 - - O 1024,4 2,1 0 0,0
01.12.2019 00:00:00 -0,3 -0,5 4 2 - - O 1024,6 4,5 - 0,0

tt = temperatuur
td = dauwpunt
ff = windsnelheid
fx = windstoten
dd = windrichting
ppp = luchtdruk
vv = zicht
sd = Zonneschijnduur
rr = neerslag

Weerstations in de omgeving